Location: Владивосток
(43.1151°N, 131.8856°E)
Time: 19:59:46
(UTC+10:00)

SEEDS - Visible Passes

Search period start: 29 June 2022 00:00
Search period end: 09 July 2022 00:00
Orbit: 580 x 599 km, 97.6° (Epoch: 28 June)

Date Brightness Start Highest point End Pass type
(mag) Time Alt. Az. Time Alt. Az. Time Alt. Az.
04 Jul ? 04:10:52 10° E 04:11:25 10° E 04:11:57 10° E visible
05 Jul ? 04:17:28 10° ENE 04:19:20 13° E 04:21:10 10° ESE visible
06 Jul ? 04:24:43 10° NE 04:27:13 16° E 04:29:43 10° SE visible
07 Jul ? 04:32:09 10° NE 04:35:07 19° E 04:38:03 10° SE visible
08 Jul ? 04:39:41 10° NE 04:42:59 23° E 04:46:16 10° SSE visible
